Weather Roundup
Issued by NWS Chicago, IL

Home | Current Version | Previous Version | Text Only | Print | Product List | Glossary On
Versions: 1 2 3 4 5 6 7 8 9 10 11 12 13 14 15 16 17 18 19 20 21 22 23 24 25 26 27 28 29 30 31 32 33 34 35 36 37 38 39 40 41 42 43 44 45 46 47 48 49 50
000
NZUS59 KLOT 190110
HRRLOT

CHICAGO AREA WEATHER ROUNDUP
NATIONAL WEATHER SERVICE CHICAGO/ROMEOVILLE IL
800 PM CDT FRI APR 18 2014

NOTE: "FAIR" INDICATES FEW OR NO CLOUDS BELOW 12,000 FEET WITH NO
SIGNIFICANT WEATHER AND/OR OBSTRUCTIONS TO VISIBILITY.

* THESE STATIONS ARE NOT UNDER NWS QUALITY CONTROL. THEY ALSO MAY NOT
  REPORT WEATHER SUCH AS PRECIPITATION OR FOG.

ILZ005-006-012>014-019>023-190200-
NORTHEAST ILLINOIS

CITY           SKY/WX    TMP DP  RH WIND       PRES   REMARKS
OHARE          CLEAR     40  28  62 NE12      30.35R
MIDWAY         PTCLDY    40  31  70 NE15      30.35R
AURORA         CLEAR     45  33  63 NE14      30.32R
LANSING*       CLEAR     38  31  77 NE13G18   30.34R
JOLIET*        CLEAR     43  32  65 NE10      30.33R
WAUKEGAN       CLEAR     35  27  72 N12G18    30.35S WCI  27
DUPAGE AIRPORT CLEAR     41  31  67 NE16      30.33R
WHEELING       CLEAR     38  29  70 NE12      30.37R
KANKAKEE*      CLEAR     44  36  72 NE8       30.31R
MORRIS*        CLEAR     48  32  53 NE8       30.31R
LEWIS AIRPORT* CLEAR     41  32  69 NE17G23   30.32R
NORTHERLY IS     N/A     37  31  79 N15         N/A
$$

WIZ051-052-058>065-066-070>072-190200-
SOUTHEAST WISCONSIN

CITY           SKY/WX    TMP DP  RH WIND       PRES   REMARKS
MILWAUKEE      PTCLDY    34  27  75 NE7       30.39S WCI  28
KENOSHA*       CLEAR     35  28  75 NE10      30.36F WCI  27
RACINE*        CLEAR     34  27  75 NE8       30.39S WCI  27
BURLINGTON     CLEAR     35  29  76 E12       30.36S WCI  27
WEST BEND      CLEAR     34  27  75 E5        30.38R WCI  30
$$

INZ001>003-010>013-019-020-190200-
NORTHWEST INDIANA

CITY           SKY/WX    TMP DP  RH WIND       PRES   REMARKS
GARY*          CLEAR     39  32  75 NE18      30.35S
MICHIGAN CITY* NOT AVBL
RENSSELAER*    NOT AVBL
VALPARAISO     CLEAR     38  30  73 N7        30.33R
$$

LMZ740>746-190200-
SOUTHERN LAKE MICHIGAN

STATION/POSITION TIME  SKY/WX   TEMP WIND        PRES    VSBY
                                AIR  DIR/SP/G
                 (UTC)          (F)  (DEG/KT/KT) (MB)    (MI)
HARRISON CRIB    0100            36   30/ 18/ 21   N/A
BURNHAM HARBOR   0100            37   20/ 15/ 17   N/A
CALUMET HARBOR   0100            38   20/ 12/ 17 1028.3R
BURNS HARBOR     NOT AVBL
MICHIGAN CITY    0100            37   20/ 19/ 22   N/A
$$

ABBREVIATIONS USED IN REMARKS
   TC - TEMPERATURE IN CELSIUS
  WCI - WIND CHILL INDEX
   HX - HEAT INDEX
  VSB - VISIBILITY
$$



USA.gov is the U.S. government's official web portal to all federal, state and local government web resources and services.